Location: Andrest
(43.3200°N, 0.0641°E)
Time: 05:48:04
(UTC+00:00)

SL-8 Rocket - Pass Details

Date: 22 April 2021
Orbit: 958 x 989 km, 82.9° (Epoch: 11 May)

Event Time Altitude Azimuth Distance (km) Brightness Sun altitude
Rises 02:31:16 0° 338° (NNW) 3,697 7.4 -24.4°
Reaches altitude 10° 02:34:25 10° 323° (NW) 2,749 6.5 -24.0°
Enters shadow 02:38:13 20° 286° (WNW) 2,098 5.5 -23.5°
